This is the latest recevied weather packets stored in our database for station/object WA4OPQ-1. If no packets are shown the sender has not sent any weather packets the latest 10 day(s).
| Time | Temp. | Humidity | Pressure | Rain* | Wind** | Luminosity | Snow |
|---|---|---|---|---|---|---|---|
| 1787699489 | 26.67° C | 70% | 1012.8 hPa | 0 mm | 0 m/s | 23 W/m² | - |
| 1787698999 | 26.67° C | 70% | 1012.7 hPa | 0 mm | 0 m/s | 24 W/m² | - |
| 1787698459 | 26.67° C | 68% | 1012.8 hPa | 0 mm | 0 m/s | 27 W/m² | - |
| 1787697934 | 27.22° C | 70% | 1013 hPa | 0 mm | 0 m/s | 31 W/m² | - |
| 1787697354 | 27.22° C | 67% | 1012.7 hPa | 0 mm | 0 m/s | 32 W/m² | - |
| 1787696814 | 27.22° C | 66% | 1013 hPa | 0 mm | 0 m/s | 34 W/m² | - |
| 1787696219 | 27.78° C | 69% | 1012.7 hPa | 0 mm | 0 m/s | 37 W/m² | - |
| 1787695694 | 27.78° C | 69% | 1012.8 hPa | 0 mm | 0 m/s | 39 W/m² | - |
| 1787695194 | 27.78° C | 62% | 1012.7 hPa | 0 mm | 0 m/s | 40 W/m² | - |
| 1787694714 | 28.33° C | 67% | 1012.8 hPa | 0 mm | 0 m/s | 44 W/m² | - |
| 1787694199 | 29.44° C | 61% | 1012.8 hPa | 0 mm | 0 m/s | 57 W/m² | - |
| 1787693674 | 29.44° C | 60% | 1013 hPa | 0 mm | 0 m/s | 239 W/m² | - |
| 1787693159 | 28.89° C | 64% | 1013.3 hPa | 0 mm | 0 m/s | 67 W/m² | - |
| 1787692619 | 30° C | 57% | 1013.1 hPa | 0 mm | 0 m/s | 369 W/m² | - |
| 1787692094 | 30° C | 56% | 1012.7 hPa | 0 mm | 0 m/s | 368 W/m² | - |
| 1787691614 | 30° C | 56% | 1012.9 hPa | 0 mm | 0 m/s | 389 W/m² | - |
| 1787691101 | 30° C | 57% | 1013 hPa | 0 mm | 0 m/s | 75 W/m² | - |
| 1787690574 | 31.67° C | 51% | 1013 hPa | 0 mm | 0.45 m/s, 305° | 470 W/m² | - |
| 1787690029 | 31.11° C | 49% | 1013.2 hPa | 0 mm | 0.45 m/s, 305° | 496 W/m² | - |
| 1787689514 | 30° C | 54% | 1013.4 hPa | 0 mm | 0 m/s | 477 W/m² | - |
| 1787688959 | 31.11° C | 57% | 1013 hPa | 0 mm | 0 m/s | 545 W/m² | - |
| 1787688394 | 31.67° C | 49% | 1013.3 hPa | 0 mm | 0 m/s | 565 W/m² | - |
| 1787687899 | 31.67° C | 53% | 1013.4 hPa | 0 mm | 0 m/s | 582 W/m² | - |
| 1787687364 | 31.11° C | 53% | 1013.5 hPa | 0 mm | 0.45 m/s, 315° | 587 W/m² | - |
| 1787686779 | 31.11° C | 49% | 1013.7 hPa | 0 mm | 0.45 m/s, 327° | 599 W/m² | - |
* Rain latest hour (hover to see other rain measurements)
** Current wind speed in m/s (hover to see current wind gust speed)